Regional Weather Roundup
Issued by NWS

Home | Current Version | Previous Version | Graphics & Text | Print | Product List | Glossary On
Versions: 1 2 3 4 5 6 7 8 9 10 11 12 13 14 15 16 17 18 19 20 21 22 23 24 25 26 27 28 29 30 31 32 33 34 35 36 37 38 39 40 41 42 43 44 45 46 47 48 49 50
000
ASUS44 KMEG 031900
RWRTN
TENNESSEE HOURLY STATE WEATHER ROUNDUP
NATIONAL WEATHER SERVICE MEMPHIS TN
200 PM CDT TUE MAY 03 2016

TNZ002-004-019-021-049-052-054-088>092-032000-
WEST TENNESSEE

CITY           SKY/WX    TMP DP  RH WIND       PRES   REMARKS
MEMPHIS INTL   CLOUDY    66  52  60 NW12      30.01F
NWS MEMPHIS      N/A     64 N/A N/A MISG        N/A
JACKSON        CLOUDY    63  49  60 NW9       29.99F
DYERSBURG      CLOUDY    64  46  52 N10         N/A
UNION CITY     CLOUDY    61  50  67 W9        29.99S
LEXINGTON      CLOUDY    64  48  55 NW7       29.97F
$$

TNZ008-025-027-028-033-062-065-066-032000-
NORTH MIDDLE TENNESSEE

CITY           SKY/WX    TMP DP  RH WIND       PRES   REMARKS
NASHVILLE      PTSUNNY   66  49  54 N5        29.95F
CLARKSVILLE    CLOUDY    62  47  57 SW8       29.96F
COOKEVILLE     PTSUNNY   63  52  67 VRB5      29.93F
CROSSVILLE     PTSUNNY   64  50  60 NW13      29.93F
$$

TNZ061-075-076-078-094-096-097-032000-
SOUTH MIDDLE TENNESSEE

CITY           SKY/WX    TMP DP  RH WIND       PRES   REMARKS
TULLAHOMA      MOSUNNY   66  50  55 W9        29.94F
WINCHESTER     PTSUNNY   68  52  56 W8        29.92F
MCMINNVILLE    PTSUNNY   64  52  63 NW8       29.94F
COLUMBIA       PTSUNNY   66  54  63 N10       29.94F
SHELBYVILLE    MOSUNNY   68  54  60 NW10      29.95S
$$

TNZ017-018-042-046-047-032000-
NORTHEAST TENNESSEE

CITY           SKY/WX    TMP DP  RH WIND       PRES   REMARKS
TRI CITIES     MOSUNNY   69  53  56 W18       29.85F
$$

TNZ012-013-036-069-073-074-032000-
CENTRAL EAST TENNESSEE

CITY           SKY/WX    TMP DP  RH WIND       PRES   REMARKS
KNOXVILLE      PTSUNNY   69  52  54 W10G18    29.87F
OAK RIDGE      CLOUDY    71  47  42 W8G18     29.88F
GATLINBURG     MOCLDY    68  55  64 NW9       29.86F
$$

TNZ083-085-099-032000-
SOUTHEAST TENNESSEE

CITY           SKY/WX    TMP DP  RH WIND       PRES   REMARKS
CHATTANOOGA    MOSUNNY   74  50  42 NW7       29.88F
$$

SKY/WX REPORTED AS FAIR MEANS FEW OR NO CLOUDS BELOW
12 THOUSAND FEET.




USA.gov is the U.S. government's official web portal to all federal, state and local government web resources and services.